Regional Weather Roundup
Issued by NWS

Home | Current Version | Previous Version | Graphics & Text | Print | Product List | Glossary On
Versions: 1 2 3 4 5 6 7 8 9 10 11 12 13 14 15 16 17 18 19 20 21 22 23 24 25 26 27 28 29 30 31 32 33 34 35 36 37 38 39 40 41 42 43 44 45 46 47 48 49 50
000
ASUS43 KMKX 230911
RWRWI

WISCONSIN REGIONAL WEATHER ROUNDUP
NATIONAL WEATHER SERVICE MILWAUKEE/SULLIVAN WI
400 AM CDT TUE SEP 23 2014

NOTE: "FAIR" INDICATES FEW OR NO CLOUDS BELOW 12,000 FEET WITH NO
SIGNIFICANT WEATHER AND/OR OBSTRUCTIONS TO VISIBILITY.

WIZ001-002-006>008-014>016-023>028-231000-
NORTHWEST WISCONSIN

CITY           SKY/WX    TMP DP  RH WIND       PRES   REMARKS
SUPERIOR ARPT  CLEAR     46  45  98 SW3       30.16S
ASHLAND        CLEAR     54  50  86 SW7       30.18S
HAYWARD        CLEAR     42  41  96 CALM      30.20S
SIREN          CLEAR     45  44  95 CALM      30.18S
CUMBERLAND     SUNNY     43  43 100 CALM      30.20S
RICE LAKE        N/A     44  43  97 CALM      30.21S FOG
CHETEK         SUNNY     44  44 100 CALM      30.20F
LADYSMITH      CLEAR     44  43  96 E3        30.23S FOG
EAU CLAIRE     FOG       43  42  97 CALM      30.21R VSB 1/2
MENOMONIE      FOG       45  45  99 CALM      30.21R VSB 1/2
NEW RICHMOND   CLEAR     47  47 100 CALM      30.19S
OSCEOLA        CLEAR     48  48 100 E5        30.21S
$$

WIZ003>005-009-010-017-018-231000-
NORTH CENTRAL WISCONSIN

CITY           SKY/WX    TMP DP  RH WIND       PRES   REMARKS
MANITOWISH WTR MOSUNNY   40  40 100 CALM      30.21S FOG
ARBOR VITAE    CLEAR     45  43  93 CALM      30.22R
WOODRUFF       CLEAR     45  43  93 CALM      30.22R
RHINELANDER    CLEAR     45  44  97 W5        30.22S
EAGLE RIVER    FOG       43  43 100 CALM      30.21R VSB 1/4
LAND O LAKES   CLEAR     39  39 100 CALM      30.22R
PHILLIPS       CLEAR     42  41  97 CALM      30.21S
TOMAHAWK       CLEAR     39  38  97 CALM      30.23S
MEDFORD        FOG       42  42 100 CALM      30.22S VSB 1
MERRILL        FOG       38  38 100 CALM      30.22S VSB 1/2
$$

WIZ029-030-035-036-043>047-231000-
CENTRAL WISCONSIN

CITY           SKY/WX    TMP DP  RH WIND       PRES   REMARKS
WAUSAU         CLEAR     47  46  97 CALM      30.22R
MOSINEE        CLEAR     46  46 100 CALM      30.24R FOG
MARSHFIELD     FOG       47  46  97 CALM      30.23R VSB 3/4
STEVENS POINT  CLEAR     39  38  97 CALM      30.24R
WAUPACA        CLEAR     47  46  96 CALM      30.24R
WAUTOMA        CLEAR     42  41  97 CALM      30.25R
WISC RAPIDS    CLEAR     44  43  96 CALM      30.25R FOG
CAMP DOUGLAS   CLEAR     41  41 100 E2        30.24R FOG
$$

WIZ011>013-019>022-031-037>040-048>050-231000-
NORTHEAST WISCONSIN

CITY           SKY/WX    TMP DP  RH WIND       PRES   REMARKS
ANTIGO         CLEAR     42  42 100 CALM      30.23R
SHAWANO        SUNNY     49  47  94 CALM      30.22S
OCONTO         SUNNY     48  48 100 W5        30.21R
STURGEON BAY   CLEAR     54  48  82 SW5       30.22R
GREEN BAY      CLEAR     47  46  97 W3        30.23R
MANITOWOC      CLEAR     52  50  93 W6        30.23R
APPLETON       CLEAR     50  48  93 W8        30.23S
CLINTONVILLE   PTCLDY    43  43 100 CALM      30.23R FOG
OSHKOSH        CLEAR     53  49  86 SW6       30.23R
$$

WIZ032>034-041-042-053>061-231000-
SOUTHWEST WISCONSIN

CITY           SKY/WX    TMP DP  RH WIND       PRES   REMARKS
LA CROSSE      FOG       52  50  93 SE6       30.23S VSB 1
SPARTA         FOG       41  41 100 CALM      30.25R VSB 3/4
VIROQUA        SUNNY     51  49  95 S3        30.25R
BOSCOBEL       FOG       47  45  93 CALM      30.26S VSB 1/4
PRAIRIE DU CHI CLEAR     47  46  95 E3        30.25S
PLATTEVILLE    CLEAR     49  46  88 SE5       30.28R
$$

WIZ056-057-062-063-064-067-068-231000-
SOUTH CENTRAL WISCONSIN

CITY           SKY/WX    TMP DP  RH WIND       PRES   REMARKS
REEDSBURG      SUNNY     43  43  99 CALM      30.25R
BARABOO/DELLS  CLEAR     47  45  91 CALM      30.25R
LONE ROCK      HAZE      47  42  83 CALM      30.26S VSB 1/2
MINERAL POINT  CLEAR     52  46  82 S3        30.26S
MADISON        CLEAR     47  45  93 CALM      30.26R
MIDDLETON      SUNNY     45  44  99 CALM      30.26R
WATERTOWN      CLEAR     42  42  99 CALM      30.26R
MONROE         CLEAR     50  45  81 SW8       30.26S
JANESVILLE     CLEAR     46  45  93 CALM      30.26S
$$

WIZ051-052-058>065-066-070>072-231000-
SOUTHEAST WISCONSIN

CITY           SKY/WX    TMP DP  RH WIND       PRES   REMARKS
MILWAUKEE      CLEAR     55  45  68 W5        30.26R
WAUKESHA       CLEAR     45  43  93 CALM      30.27S
MILWAUKEE/TIMM CLEAR     46  43  87 CALM      30.26S
RACINE         CLEAR     52  46  80 W7        30.28R
BURLINGTON     CLEAR     41  41 100 CALM      30.27R
KENOSHA        CLEAR     47  45  93 SW3       30.27R
FOND DU LAC    CLEAR     49  46  90 S3        30.24S
SHEBOYGAN      CLEAR     46  45  96 SW3       30.24R
WEST BEND      CLEAR     45  43  93 CALM      30.25R
JUNEAU         CLEAR     47  46  96 CALM      30.26R
$$

LSZ147-162-231000-
LAKE SUPERIOR

STATION/POSITION TIME  TEMP    WIND        PRES    WAVE
                       AIR SEA DIR/SP/G            HT/PER
                 (UTC) (F)     (DEG/KT/KT) (MB)    (FT/S)
W MID LAKE BUOY  0850   51 48  230/ 12/ 12 1020.4R   2/ 4
DEVILS ISLAND    0900   57     240/ 13/ 15 1021.2R
PORT WING        0800   54     140/  3/  5 1021.3S
SAXON HARBOR     0800   56     190/  6/  9 1021.7S
$$

LMZ867-665-643>646-231000-
LAKE MICHIGAN

STATION/POSITION TIME  TEMP    WIND        PRES    WAVE
                       AIR SEA DIR/SP/G            HT/PER
                 (UTC) (F)     (DEG/KT/KT) (MB)    (FT/S)
CHAMBERS ISLAND  0800   55     190/  2/  6 1022.4R
S GREEN BAY BUOY 0900   58                 1023.9R
N MID LAKE BUOY  0750   57 57  240/ 10/ 12 1021.8R   2/ 5
NORTHPORT PIER   0900   58     260/  5/ 12 1022.0R
KEWAUNEE LAKESHO 0800   51     300/  6/  7 1021.9R
SHEBOYGAN LAKESH 0900   54 53  250/ 10/ 11 1024.4R
PORT WASHINGTON  0800   55     280/  4/  6 1024.0F
ATWATER BUOY     0900   56     230/ 10/ 10 1025.3R
S MID LAKE BUOY  0850   61 62  220/ 12/ 14 1024.8R   2/ 4
KENOSHA   LAKESH 0900   54     250/  8/ 10 1024.7R
$$

TC  - TEMPERATURE IN CELSIUS
VSB - VISIBILITY IN STATUTE MILES
WCI - WIND CHILL INDEX
HX  - HEAT INDEX




USA.gov is the U.S. government's official web portal to all federal, state and local government web resources and services.